Location: El Hornillo
(40.2499°N, 5.1036°W)
Time: 09:42:34
(UTC+00:00)

ERS-1 Rocket - Pass Details

Date: 05 August 2024
Orbit: 750 x 753 km, 98.3° (Epoch: 14 September)

Event Time Altitude Azimuth Distance (km) Brightness Sun altitude
Exits shadow 21:55:40 32° 207° (SSW) 1,263 3.9 -23.2°
Maximum altitude 21:57:34 48° 261° (W) 971 3.6 -23.4°
Drops below altitude 10° 22:02:24 10° 336° (NNW) 2,279 6.5 -24.0°
Sets 22:04:47 0° 342° (NNW) 3,208 7.4 -24.3°
